Portada
METAR-TAF:

METAR-TAF

Aeropuertos :

Aeropuerto Santiago Pérez Quiroz

Arauca, Colombia

latitud: 07-04N, longitud: 070-44W, altitud: 128 m

Observación

El informe se hizo hace 41 minutos, a las 19:00 UTC
Viento 3 kt del oeste
Temperatura 30°C
Humedad 70%
Presión 1014 hPa
Visibilidad 10 km o más
Nubes dispersas a una altura de 1700 ft

METAR: SKUC 211900Z 26003KT 9999 SCT017 30/24 A2993

Hora: 14:41 (19:41 UTC)


TAF: falta

Observaciones y pronósticos meteorológicos de más de 4000 aeropuertos (mensajes METAR y TAF).

Los puntos amarillos y rojos representan las estaciones disponibles.

Ponga el ratón en el punto deseado para ver el nombre de la estación.

Haga clic para ver las observaciones y los pronósticos meteorológicos.

Para cambiar el mapa : haga clic en los botones verdes con una cruz de color negro para hacer un zoom, en el botón verde con un guión para alejar o en las flechas verdes para mapas adyacentes.


METAR-TAF: